EW1968 Weather Reports


time (UTC)temp
C
wind
direction
speed
KPH
gust
KPH
rain 1hr
cm
rain 24hr
cm
rain mn
cm
humidity
%
barometer
mb
20260506024514 20 0 6.4 6.4 0.00 0.00 0.00 34 859.0
20260506023015 20 0 6.4 6.4 0.00 0.00 0.00 34 859.0
20260506021515 20 0 6.4 6.4 0.00 0.00 0.00 34 858.0
20260506020016 20 0 6.4 6.4 0.00 0.00 0.00 34 858.0
20260506014514 20 0 6.4 6.4 0.00 0.00 0.00 34 858.0
20260506013015 20 0 6.4 6.4 0.00 0.00 0.00 34 858.0
20260506011514 20 0 6.4 6.4 0.00 0.00 0.00 34 858.0
20260506010014 20 0 6.4 6.4 0.00 0.00 0.00 34 858.0
20260506004515 20 0 6.4 6.4 0.00 0.00 0.00 34 858.0
20260506003015 20 0 6.4 6.4 0.00 0.00 0.00 34 858.0
20260506001515 20 0 6.4 6.4 0.00 0.00 0.00 34 858.0
20260506000014 20 0 6.4 6.4 0.00 0.00 0.00 34 857.0
20260505234514 20 0 6.4 6.4 0.00 0.00 0.00 34 857.0
20260505233014 20 0 6.4 6.4 0.00 0.00 0.00 34 857.0
20260505231514 20 0 6.4 6.4 0.00 0.00 0.00 34 858.0
20260505230014 20 0 6.4 6.4 0.00 0.00 0.00 34 858.0
20260505224514 20 0 6.4 6.4 0.00 0.00 0.00 34 857.0
20260505223014 20 337 4.8 9.7 0.00 0.00 0.00 34 858.0
20260505221516 20 202 6.4 6.4 0.00 0.00 0.00 34 858.0
20260505220015 20 202 6.4 6.4 0.00 0.00 0.00 34 858.0
20260505214515 20 292 9.7 6.4 0.00 0.00 0.00 34 858.0
20260505213014 20 0 8.0 9.7 0.00 0.00 0.00 34 858.0
20260505211514 20 0 6.4 6.4 0.00 0.00 0.00 34 858.0
20260505210014 20 202 6.4 12.9 0.00 0.00 0.00 34 858.0
20260505204515 20 157 6.4 4.8 0.00 0.00 0.00 34 858.0
20260505203014 18 180 9.7 8.0 0.00 0.00 0.00 40 859.0
20260505201515 18 225 6.4 8.0 0.00 0.00 0.00 40 859.0
20260505200014 18 247 4.8 9.7 0.00 0.00 0.00 41 859.0
20260505194515 20 270 8.0 6.4 0.00 0.00 0.00 39 859.0
20260505193015 19 292 4.8 3.2 0.00 0.00 0.00 43 859.0
20260505191515 18 180 9.7 4.8 0.00 0.00 0.00 45 859.0
20260505190015 17 247 4.8 4.8 0.00 0.00 0.00 46 859.0
20260505184515 17 292 6.4 3.2 0.00 0.00 0.00 46 859.0
20260505183014 17 135 6.4 3.2 0.00 0.00 0.00 49 859.0
20260505181514 16 225 4.8 6.4 0.00 0.00 0.00 52 859.0
20260505180014 17 247 6.4 4.8 0.00 0.00 0.00 55 860.0
20260505174515 -17 157 4.8 0.0 0.00 0.00 0.00 859.0
20260505173016 -17 157 4.8 0.0 0.00 0.00 0.00 859.0
20260505171516 -17 157 4.8 4.8 0.00 0.00 0.00 859.0
20260505170015 -17 292 3.2 4.8 0.00 0.00 0.00 859.0
20260505164515 -17 180 4.8 8.0 0.00 0.00 0.00 859.0
20260505163015 -17 180 4.8 8.0 0.00 0.00 0.00 859.0
20260505161515 -17 292 4.8 1.6 0.00 0.00 0.00 859.0
20260505153015 -17 337 3.2 4.8 0.00 0.00 0.00 859.0
20260505151515 -17 247 3.2 4.8 0.00 0.00 0.00 859.0
20260505121514 12 67 0.0 0.0 0.00 0.00 0.00 75 858.0
20260505120015 12 67 0.0 0.0 0.00 0.00 0.00 75 858.0
20260505114515 12 67 0.0 0.0 0.00 0.00 0.00 75 858.0
20260505113015 12 67 0.0 0.0 0.00 0.00 0.00 75 858.0
20260505111515 12 0.0 0.0 0.00 0.00 0.00 75 858.0
20260505100015 -17 0.0 0.0 0.00 0.00 0.00 859.0
20260505094516 -17 0.0 0.0 0.00 0.00 0.00 859.0
20260505093016 -17 0.0 0.0 0.00 0.00 0.00 859.0
20260505091514 -17 0.0 0.0 0.00 0.00 0.00 859.0
20260505080015 -17 0.0 0.0 0.00 0.00 0.00 861.0
20260505074514 -17 0.0 0.0 0.00 0.00 0.00 861.0
20260505073015 -17 0.0 0.0 0.00 0.00 0.00 861.0
20260505071515 -17 0.0 0.0 0.00 0.00 0.00 861.0
20260505070014 -17 0.0 0.0 0.00 0.00 0.00 861.0
20260505064516 -17 90 6.4 4.8 0.00 0.00 0.00 861.0
20260505063015 -17 90 6.4 4.8 0.00 0.00 0.00 861.0
20260505061515 -17 90 6.4 4.8 0.00 0.00 0.00 861.0
20260505053015 -17 90 6.4 4.8 0.00 0.00 0.00 861.0
20260505051515 -17 90 6.4 4.8 0.00 0.00 0.00 861.0
20260505041515 -17 90 6.4 4.8 0.00 0.00 0.00 862.0
20260505040015 -17 90 6.4 4.8 0.00 0.00 0.00 861.0
20260505034518 -17 90 6.4 4.8 0.00 0.00 0.00 860.0
20260505030016 -17 90 6.4 4.8 0.00 0.00 0.00 861.0